STARLINK-35855

Last updated on Fri Dec 19 2025 00:02:08 GMT+0000 (Coordinated Universal Time)

1 66891U 25283P 25352.58336806 -.01388327 00000+0 -88102-2 0 9990 2 66891 53.1556 44.3870 0001401 67.4188 80.4916 15.78484080 3368
UTC large
Height (km)
Speed (km/s)
/
Latitude / Longitude
Inclination (degrees)
Orbital Period (minutes)
Azimuth
Elevation
Range (km)
Doppler Factor

Next 0 passes for location: London (51.5072 / 0.1276)

Sorry there are no passes over London.